CW0736 Weather Reports


Display with metric or nautical units.
time (UTC)temp
F
wind
direction
speed
MPH
gust
MPH
rain 1hr
in
rain 24hr
in
rain mn
in
humidity
%
barometer
mb
20260505041530 61 202 2.0 5.0 0.00 0.00 0.00 65 1003.0
20260505040053 61 205 2.0 6.0 0.00 0.00 0.00 64 1003.2
20260505034545 62 198 2.0 6.0 0.00 0.00 0.00 63 1003.3
20260505033046 62 171 2.0 4.0 0.00 0.00 0.00 63 1003.5
20260505031542 63 236 2.0 4.0 0.00 0.00 0.00 62 1003.6
20260505030044 62 230 3.0 5.0 0.00 0.00 0.00 57 1003.8
20260505024556 62 190 1.0 3.0 0.00 0.00 0.00 56 1003.5
20260505023058 62 201 2.0 5.0 0.00 0.00 0.00 55 1003.4
20260505021559 63 216 1.0 3.0 0.00 0.00 0.00 54 1003.4
20260505020054 63 257 1.0 2.0 0.00 0.00 0.00 53 1003.6
20260505014607 63 257 1.0 2.0 0.00 0.00 0.00 52 1003.7
20260505013053 63 251 1.0 3.0 0.00 0.00 0.00 52 1003.8
20260505011559 64 253 0.0 2.0 0.00 0.00 0.00 52 1003.6
20260505010050 65 253 1.0 3.0 0.00 0.00 0.00 49 1003.6
20260505004556 65 252 1.0 2.0 0.00 0.00 0.00 49 1003.6
20260505003054 66 249 2.0 5.0 0.00 0.00 0.00 47 1003.5
20260505001516 67 261 1.0 4.0 0.00 0.00 0.00 45 1003.6
20260505000048 69 252 1.0 4.0 0.00 0.00 0.00 43 1003.7
20260504234534 69 239 2.0 7.0 0.00 0.00 0.00 42 1003.7
20260504233028 70 281 1.0 5.0 0.00 0.00 0.00 42 1003.6
20260504231514 70 248 1.0 6.0 0.00 0.00 0.00 40 1003.5
20260504230014 71 252 2.0 4.0 0.00 0.00 0.00 39 1003.6
20260504224520 71 257 2.0 6.0 0.00 0.00 0.00 40 1003.7
20260504223015 72 238 1.0 10.0 0.00 0.00 0.00 39 1003.6
20260504221507 72 262 3.0 8.0 0.00 0.00 0.00 38 1003.4
20260504220015 73 247 2.0 7.0 0.00 0.00 0.00 38 1003.4
20260504214511 73 265 4.0 9.0 0.00 0.00 0.00 36 1003.5
20260504213104 73 279 5.0 11.0 0.00 0.00 0.00 35 1003.6
20260504211550 74 264 3.0 9.0 0.00 0.00 0.00 39 1003.7
20260504210057 73 273 2.0 8.0 0.00 0.00 0.00 40 1003.7
20260504204556 73 263 4.0 13.0 0.00 0.00 0.00 40 1003.8
20260504203006 73 242 5.0 13.0 0.00 0.00 0.00 39 1003.9
20260504201505 73 271 3.0 9.0 0.00 0.00 0.00 42 1004.0
20260504200005 74 283 3.0 10.0 0.00 0.00 0.00 40 1004.1
20260504194559 73 234 3.0 13.0 0.00 0.00 0.00 44 1004.3
20260504193046 73 239 5.0 10.0 0.00 0.00 0.00 41 1004.7
20260504191603 72 252 4.0 12.0 0.00 0.00 0.00 43 1004.9
20260504191502 72 254 3.0 12.0 0.00 0.00 0.00 43 1004.9
20260504190002 72 236 5.0 9.0 0.00 0.00 0.00 44 1005.2
20260504184547 71 278 4.0 10.0 0.00 0.00 0.00 46 1005.4
20260504183047 71 227 4.0 11.0 0.00 0.00 0.00 48 1005.5
20260504181548 70 249 4.0 10.0 0.00 0.00 0.00 50 1005.9
20260504180041 69 224 4.0 14.0 0.00 0.00 0.00 51 1005.9
20260504174541 69 246 5.0 11.0 0.00 0.00 0.00 49 1006.1
20260504173043 69 230 5.0 10.0 0.00 0.00 0.00 50 1006.0
20260504171549 69 255 3.0 8.0 0.00 0.00 0.00 51 1006.0
20260504090114 50 242 2.0 5.0 0.00 0.00 0.00 61 1007.8
20260504081546 50 244 2.0 4.0 0.00 0.00 0.00 62 1008.5
20260504050001 53 244 4.0 9.0 0.00 0.00 0.00 58 1009.8
20260504044535 53 248 4.0 10.0 0.00 0.00 0.00 58 1010.0